Location: Iesi
(43.5167°N, 13.2333°E)
Time: 16:31:14
(UTC+00:00)

Meteor 2-20 - Pass Details

Date: 08 August 2020
Orbit: 938 x 959 km, 82.5° (Epoch: 22 September)

Event Time Altitude Azimuth Distance (km) Brightness Sun altitude
Rises 20:07:17 0° 351° (N) 3,650 8.4 -17.1°
Reaches altitude 10° 20:09:48 10° 351° (N) 2,699 7.6 -17.4°
Maximum altitude 20:16:00 87° 262° (W) 963 4.4 -18.2°
Enters shadow 20:20:08 22° 175° (S) 1,939 5.6 -18.8°
